Location: Pre�
(4.5333°S, 37.9000°W)
Time: 19:05:27
(UTC+00:00)

Daily predictions for brighter satellites

Satellite Brightness Start Highest point End
(mag) Time Altitude Azimuth Time Altitude Azimuth Time Altitude Azimuth
ATLAS 2AS CENTAUR RB 3.8 20:53:33 10° WSW 20:58:04 51° SSE 21:24:43 10° E
ARIANE 5 R/B 3.0 21:02:04 10° W 21:05:21 88° S 21:23:02 10° E
SL-16 R/B 3.8 21:02:47 10° SE 21:05:47 15° ESE 21:08:47 10° ENE
Lacrosse 5 1.9 21:02:40 10° SSW 21:07:47 86° ESE 21:12:53 10° NNE
CZ-4B R/B 4.2 21:02:15 10° S 21:07:48 57° WSW 21:13:17 10° NNW
CZ-4 R/B 2.4 21:05:09 10° SE 21:08:13 23° E 21:11:16 10° NNE
Cosmos 1869 Rocket 3.5 21:04:18 10° S 21:08:37 73° E 21:12:56 10° N
Meteor 1-18 Rocket 4.4 21:03:17 10° N 21:08:55 54° E 21:14:29 10° SSE
SEDSat Delta rocket 3.8 21:04:54 10° WNW 21:10:22 64° SW 21:15:06 10° SE
ARGOS 4.4 21:09:00 10° SE 21:12:51 20° ENE 21:16:41 10° NNE
DMSP B5D2-2 4.3 21:08:45 10° NNE 21:13:42 46° ESE 21:18:41 10° S
Ariane H10 1.9 21:12:31 10° W 21:15:06 66° N 21:18:26 11° E
Cosmos 2242 Rocket 4.5 21:12:55 10° NNE 21:16:36 26° E 21:20:18 10° SE
SeaSat 1 3.8 21:14:24 10° N 21:19:02 42° WNW 21:23:41 10° SW
Cosmos 1238 Rocket 3.7 21:14:34 10° S 21:20:10 51° E 21:24:49 10° NNE
CZ-4 R/B 4.4 21:16:02 10° SSE 21:20:11 68° E 21:24:18 10° N
ATLAS 3B R/B 3.6 21:14:58 10° SSE 21:20:12 24° ESE 21:25:16 10° ENE
Cosmos 1733 Rocket 3.9 21:22:08 10° SSE 21:25:47 27° E 21:29:25 10° NE
Cosmos 1980 4.1 21:22:00 10° SSW 21:27:37 70° WNW 21:33:13 10° N
GOES 2 Rocket 4.2 21:23:49 10° W 21:27:52 35° NNW 21:31:42 10° NE
Cosmos 968 Rocket 3.7 21:24:47 10° NNW 21:30:00 76° WSW 21:35:12 10° S
Cosmos 921 Rocket 3.8 21:32:18 10° SSE 21:35:52 27° ESE 21:38:04 18° NE
Cosmos 1743 3.0 21:32:55 10° SSE 21:36:36 43° E 21:40:16 10° NNE
Meteor 2-4 Rocket 3.8 21:31:53 10° N 21:37:41 61° E 21:43:26 10° SSE
ARIANE 3 DEB 1.5 21:35:01 10° W 21:38:06 87° N 21:38:55 36° E
Orbus 7S 4.1 21:40:37 10° WSW 21:43:35 54° NNW 21:48:43 16° NE
SME Rocket 2.7 21:40:31 10° NNE 21:44:27 75° ESE 21:48:13 10° S
Okean-O 2.5 21:45:18 10° SSE 21:49:44 74° E 21:54:08 10° N
CZ-2C R/B 4.4 21:47:32 10° NNW 21:52:10 33° WNW 21:56:47 10° SW
CSL-04 Rocket 4.0 21:48:47 10° SSE 21:53:59 41° ENE 21:59:09 10° N
GPS 2-15 Rocket1 3.1 21:51:09 10° WNW 21:56:01 73° NNE 21:57:58 36° E
ARIANE 5 R/B 3.3 21:53:05 10° W 21:57:38 83° S 22:09:11 25° E
ARIANE 5 R/B 3.3 21:53:06 10° W 21:57:39 83° S 22:09:11 25° E
ARIANE 5 R/B 3.3 21:53:05 10° W 21:57:39 83° S 22:09:10 25° E
ASTRO E2 3.7 21:55:18 10° WSW 21:59:00 38° NNW 22:00:42 25° NNE
H-2A R/B 2.4 21:53:49 10° S 21:59:09 70° WSW 22:04:33 10° NNW
Ariane H10 3.4 21:52:19 10° W 21:59:11 79° S 22:03:57 30° E
ARIANE 5 R/B 2.3 21:59:40 10° WNW 22:00:48 26° NW 22:00:48 26° NW
CSL-04 Debris 4.2 21:56:33 10° SSE 22:01:51 56° ENE 22:07:08 10° N
ARIANE 5 DEB (SYLDA) 4.3 22:00:36 10° W 22:04:02 86° N 22:08:50 30° E
Cosmos 44 Rocket 3.5 21:59:22 10° NNW 22:04:24 74° WSW 22:09:18 10° SSE
Milstar 3 3.6 21:53:21 10° WNW 22:07:44 87° SSW 22:13:03 26° ESE
YAOGAN 1 3.5 22:05:39 10° S 22:09:49 48° WSW 22:13:58 10° NNW
Cosmos 1703 Rocket 4.2 22:07:32 10° NNW 22:11:44 54° W 22:15:58 10° S
ASTEX 1 3.8 22:19:57 10° N 22:24:46 61° W 22:29:38 10° SSW
Cosmos 1844 Rocket 2.6 22:19:53 10° NNW 22:25:27 82° WSW 22:31:04 10° SSE
Centaur AC-102 3.9 22:23:42 10° W 22:28:14 44° NNW 22:29:08 40° NNE
USA 81 4.2 22:23:28 10° S 22:28:44 73° W 22:33:58 10° N
Cosmos 1821 Rocket 4.4 22:24:07 10° SSW 22:30:24 63° W 22:36:34 10° N
Helios 1A Rocket 3.9 22:29:58 10° S 22:33:54 45° WSW 22:37:47 10° NNW
Cosmos 2084 Rocket 4.4 22:31:31 10° NW 22:35:59 50° WSW 22:36:55 43° SSW
Cosmos 1934 Rocket 4.1 22:38:02 10° S 22:42:54 60° S 22:42:54 60° S
SL-16 R/B 3.4 22:44:28 10° SW 22:49:40 38° WNW 22:52:40 22° NNW
Cosmos 1844 4.3 22:48:46 10° NNW 22:54:12 52° WSW 22:55:03 47° SW
ATLAS 3B R/B 4.0 23:04:50 10° SW 23:10:37 32° WNW 23:12:39 27° NW
H-10 deb 3.6 23:06:44 10° W 23:10:13 67° SW 23:10:13 67° SW
